Regional Weather Roundup
Issued by NWS

Home | Current Version | Previous Version | Text Only | Print | Product List | Glossary On
Versions: 1 2 3 4 5 6 7 8 9 10 11 12 13 14 15 16 17 18 19 20 21 22 23 24 25 26 27 28 29 30 31 32 33 34 35 36 37 38 39 40 41 42 43 44 45 46 47 48 49 50
000
ASUS45 KBOU 222307
RWRCO

WEATHER ROUNDUP FOR COLORADO
NATIONAL WEATHER SERVICE DENVER/BOULDER CO
500 PM MDT FRI MAY 22 2015

NOTE: "FAIR" INDICATES FEW OR NO CLOUDS BELOW 12000 FEET WITH NO
SIGNIFICANT WEATHER AND/OR OBSTRUCTIONS TO VISIBILITY.

COZ001>005-013-030-031-230000-
...NORTHWEST COLORADO...

CITY           SKY/WX    TMP DP  RH WIND       PRES   REMARKS
CRAIG          CLOUDY    50  40  68 CALM      29.99R
HAYDEN         CLOUDY    46  36  66 CALM      29.99S
MEEKER         PTSUNNY   56  41  57 MISG      29.96F
MOUNT WERNER   NOT AVBL
STEAMBOAT SPGS CLOUDY    42  39  88 CALM      30.02R
WALDEN         CLOUDY    50  34  53 SE8       30.01R
$$

COZ006>008-011-230000-
...WEST CENTRAL VALLEYS...

CITY           SKY/WX    TMP DP  RH WIND       PRES   REMARKS
GRAND JUNCTION PTSUNNY   64  38  38 NE10      29.85F
MONTROSE       PTSUNNY   66  27  23 SW8       29.91S
EAGLE          PTSUNNY   59  36  41 W8        29.98R
RIFLE          PTSUNNY   58  41  53 N7        29.92F
DELTA          TSTM      66  43  42 MISG      29.89R
NUCLA          PTSUNNY   66  32  28 S8G25     29.95F
$$

COZ017>023-064>068-230000-
...SOUTHWEST COLORADO...

CITY           SKY/WX    TMP DP  RH WIND       PRES   REMARKS
DURANGO        CLOUDY    58  36  43 S21G31    30.00S
CORTEZ         RAIN      53  46  77 E9        29.96F
PAGOSA SPRINGS DRIZZLE   53  39  60 N5        30.04F
TELLURIDE      CLOUDY    46  32  59 S6        30.09S
WOLF CREEK PAS NOT AVBL
$$

COZ009-010-012-014-032>034-037-058>063-230000-
...CENTRAL COLORADO...

CITY           SKY/WX    TMP DP  RH WIND       PRES   REMARKS
ASPEN          CLOUDY    51  35  54 E6        29.99F
BUENA VISTA    CLOUDY    55  30  38 S13G18    30.02S
COPPER MTN     PTSUNNY   36  27  69 S9        30.19R THUNDER
BERTHOUD PASS  FAIR      30  23  74 SW6       30.21S WCI  24
COTTONWOOD PAS CLOUDY    45  30  57 SW16G24   30.11S
GUNNISON       PTSUNNY   59  21  23 SW9       29.98F
KREMMLING      PTSUNNY   54  36  50 SW7       30.00R
LEADVILLE      CLOUDY    44  28  53 N7        30.07R
MONARCH PASS   CLOUDY    34  25  69 S15G25    30.28S WCI  24
SALIDA         PTSUNNY   58  31  34 S25G33    30.06S
SUNLIGHT       PTSUNNY   41  36  81 CALM      30.15F
WILKERSON PASS CLOUDY    37  30  75 CALM      30.19S
$$

COZ069>075-230000-
...SAN LUIS VALLEY/SANGRE DE CRISTO MOUNTAINS...

CITY           SKY/WX    TMP DP  RH WIND       PRES   REMARKS
ALAMOSA        PTSUNNY   62  32  32 S22G31    30.01F
LA VETA PASS   PTSUNNY  N/A N/A N/A MISG      30.16R
SAGUACHE       PTSUNNY   59  34  38 S15G23    30.02S
$$

COZ035-036-038>040-230000-
...NORTHERN COLORADO FRONT RANGE...

CITY           SKY/WX    TMP DP  RH WIND       PRES   REMARKS
DENVER INTL AP PTSUNNY   58  47  66 NE9       29.98S
DMNS CITY PARK   N/A     55  44  66 NE9       29.99R
AURORA         PTSUNNY   56  46  68 N12       29.99R
FRONT RANGE AP PTSUNNY   59  48  67 NE9       29.99S
ERIE MUNI ARPT PTSUNNY   55  46  71 NE6       29.99R THUNDER
BOULDER MUN AP CLOUDY    52  46  82 N3        30.00R
CENTENNIAL     LGT RAIN  56  46  69 N13       29.99R
BROOMFIELD     PTSUNNY   54  46  76 NE7       30.01R
FORT COLLINS   CLOUDY    54  45  71 NE9       30.01S
LONGMONT       CLOUDY    56  47  70 CALM      30.01R
$$

COZ041-046-047-076>085-087-088-230000-
...PIKES PEAK/PALMER DIVIDE AND SOUTHERN FOOTHILLS...

CITY           SKY/WX    TMP DP  RH WIND       PRES   REMARKS
COLO. SPRINGS  MOSUNNY   66  42  41 SE21      29.96S
A. F. ACADEMY  PTSUNNY   63  41  44 S13G20    29.96F
ELLICOTT       NOT AVBL
FALCON         PTSUNNY   64  38  38 S15G22    30.01R
FORT CARSON    PTSUNNY   66  46  47 SE21G26   29.94R
LIMON          MOSUNNY   60  48  64 E8        29.98S
MONUMENT HILL  NOT AVBL
TRINIDAD       MOSUNNY   68  44  42 S22       29.95R
$$

COZ042>045-048>051-090-091-230000-
...NORTHEAST COLORADO...

CITY           SKY/WX    TMP DP  RH WIND       PRES   REMARKS
GREELEY ARPT   CLOUDY    54  43  66 CALM      30.00S
AKRON          CLOUDY    55  50  83 NE10      29.98S
BURLINGTON     PTSUNNY   61  54  77 SE21G28   29.97S
WRAY           CLOUDY   N/A N/A N/A E15       30.00F
STERLING       CLOUDY    54  50  87 E14       29.99F
HOLYOKE        NOT AVBL
FORT MORGAN    PTSUNNY   57  47  68 E9        29.99S
$$

COZ086-089-092>099-230000-
...SOUTHEAST COLORADO...

CITY           SKY/WX    TMP DP  RH WIND       PRES   REMARKS
PUEBLO         PTSUNNY   69  46  43 E18       29.86F
LA JUNTA       PTSUNNY   75  48  38 SE12      29.87F
LAMAR          MOSUNNY   74  53  48 S24G31    29.87F
SPRINGFIELD      N/A     67  52  58 S24G35    29.96F
$$



USA.gov is the U.S. government's official web portal to all federal, state and local government web resources and services.